TimeEST,TemperatureF,Dew PointF,Humidity,Sea Level PressureIn,VisibilityMPH,Wind Direction,Wind SpeedMPH,Gust SpeedMPH,PrecipitationIn,Events,Conditions,WindDirDegrees,DateUTC
12:53 AM,45.0,27.0,49,30.43,10.0,South,3.5,-,N/A,,Clear,190,2013-01-10 05:53:00
1:53 AM,46.0,26.1,46,30.45,10.0,West,8.1,-,N/A,,Clear,260,2013-01-10 06:53:00
2:53 AM,45.0,25.0,46,30.46,10.0,WNW,15.0,-,N/A,,Clear,290,2013-01-10 07:53:00
3:53 AM,43.0,25.0,49,30.47,10.0,WNW,12.7,-,N/A,,Clear,300,2013-01-10 08:53:00
4:53 AM,44.1,25.0,47,30.46,10.0,NW,10.4,18.4,N/A,,Clear,320,2013-01-10 09:53:00
5:53 AM,43.0,24.1,47,30.49,10.0,Variable,4.6,-,N/A,,Clear,0,2013-01-10 10:53:00
6:53 AM,41.0,25.0,53,30.53,10.0,North,5.8,-,N/A,,Clear,350,2013-01-10 11:53:00
7:53 AM,37.0,25.0,62,30.56,10.0,ESE,3.5,-,N/A,,Clear,120,2013-01-10 12:53:00
8:53 AM,43.0,26.1,51,30.59,10.0,NNW,3.5,-,N/A,,Clear,330,2013-01-10 13:53:00
9:53 AM,45.0,26.1,48,30.61,10.0,NNW,4.6,-,N/A,,Clear,340,2013-01-10 14:53:00
10:53 AM,46.9,26.1,44,30.61,10.0,Calm,Calm,-,N/A,,Clear,0,2013-01-10 15:53:00
11:53 AM,48.0,27.0,44,30.57,10.0,WNW,3.5,-,N/A,,Clear,300,2013-01-10 16:53:00
12:53 PM,48.9,26.1,41,30.55,10.0,SE,3.5,-,N/A,,Clear,130,2013-01-10 17:53:00
1:53 PM,50.0,26.1,39,30.53,10.0,NE,3.5,-,N/A,,Clear,50,2013-01-10 18:53:00
2:53 PM,52.0,28.0,40,30.51,10.0,NE,4.6,-,N/A,,Clear,40,2013-01-10 19:53:00
3:53 PM,51.1,28.9,43,30.51,10.0,NE,6.9,-,N/A,,Clear,40,2013-01-10 20:53:00
4:53 PM,46.9,28.0,48,30.50,10.0,East,3.5,-,N/A,,Clear,80,2013-01-10 21:53:00
5:53 PM,45.0,27.0,49,30.51,10.0,Calm,Calm,-,N/A,,Clear,0,2013-01-10 22:53:00
6:53 PM,45.0,28.0,52,30.52,10.0,NNE,3.5,-,N/A,,Clear,30,2013-01-10 23:53:00
7:53 PM,44.1,28.0,53,30.51,10.0,North,3.5,-,N/A,,Clear,10,2013-01-11 00:53:00
8:53 PM,41.0,28.0,60,30.51,10.0,Calm,Calm,-,N/A,,Clear,0,2013-01-11 01:53:00
9:53 PM,39.9,28.0,63,30.51,10.0,Calm,Calm,-,N/A,,Clear,0,2013-01-11 02:53:00
10:53 PM,41.0,28.0,60,30.49,10.0,Calm,Calm,-,N/A,,Clear,0,2013-01-11 03:53:00